Temp
-5 -5 -6 -5 -5 -6 -6 -6 -6 -7 -5 -4 -5 -6 -6 -5 -4 -4 -4 -4 -4 -4 -4 -5 -5 -5 -4 -4 -4 -4 -4 -4 -4 -4 -5 -5 -5 -4 -5 -5 -5 -6 -6 -6
-5 -6 -5 -5 -5 -5 -6 -7 -6 -6 -5 -5 -5 -5 -5 -5 -5 -5 -4 -4 -4 -4 -4 -4 -5 -5 -5 -5 -5 -5 -4 -5 -4 -4 -5 -5 -6 -6 -6 -5 -5 -6 -6 -6
-6 -6 -5 -6 -5 -6 -7 -6 -6 -6 -5 -5 -5 -5 -5 -5 -5 -5 -5 -5 -5 -5 -5 -5 -5 -5 -6 -5 -5 -5 -4 -4 -4 -5 -5 -5 -6 -6 -6 -6 -6 -6 -6 -6
-5 -6 -6 -6 -6 -6 -5 -5 -6 -6 -5 -6 -6 -5 -4 -4 -4 -4 -5 -5 -5 -4 -4 -4 -5 -5 -5 -5 -5 -5 -5 -5 -5 -5 -5 -6 -6 -6 -6 -6 -6 -6 -6 -6
-6 -7 -6 -7 -6 -6 -6 -6 -6 -6 -6 -6 -6 -5 -5 -4 -4 -5 -5 -5 -5 -5 -5 -4 -4 -5 -5 -5 -5 -6 -6 -6 -6 -6 -6 -6 -6 -5 -5 -5 -7 -6 -6 -6
-6 -6 -6 -7 -6 -7 -6 -6 -6 -6 -7 -6 -6 -5 -5 -4 -6 -4 -5 -5 -5 -5 -5 -5 -5 -5 -5 -5 -5 -5 -6 -6 -7 -7 -6 -6 -7 -7 -7 -7 -6 -6 -7 -6
-6 -7 -8 -7 -7 -7 -6 -8 -6 -5 -6 -5 -5 -6 -6 -6 -5 -6 -5 -6 -5 -6 -6 -6 -6 -6 -6 -6 -6 -6 -6 -6 -6 -6 -6 -7 -7 -7 -6 -6 -7 -7 -7 -7
-7 -6 -6 -8 -7 -7 -7 -7 -7 -6 -6 -5 -6 -7 -6 -6 -6 -6 -6 -6 -6 -6 -6 -6 -6 -6 -6 -6 -5 -6 -6 -6 -7 -7 -7 -7 -7 -8 -7 -7 -7 -7 -4 -6
-8 -7 -7 -8 -8 -8 -8 -8 -7 -7 -6 -6 -5 -6 -7 -6 -6 -6 -6 -6 -6 -6 -7 -7 -7 -7 -7 -6 -6 -6 -6 -6 -7 -7 -8 -7 -8 -8 -8 -8 -7 -7 -7 -7
-8 -8 -8 -9 -8 -7 -7 -8 -8 -7 -7 -7 -6 -6 -7 -7 -7 -6 -7 -7 -7 -7 -7 -7 -8 -8 -7 -7 -7 -7 -7 -7 -7 -7 -7 -7 -7 -8 -8 -8 -8 -8 -7 -8
-7 -9 -9 -9 -9 -9 -9 -8 -8 -8 -8 -7 -7 -6 -8 -8 -7 -7 -7 -8 -8 -8 -9 -8 -8 -8 -8 -8 -8 -8 -8 -7 -7 -8 -9 -10 -10 -8 -10 -8 -8 -8 -7 -7
-9 -9 -9 -9 -8 -9 -9 -9 -9 -8 -8 -7 -7 -7 -8 -8 -8 -8 -8 -8 -9 -9 -9 -9 -9 -9 -9 -9 -9 -9 -9 -9 -9 -10 -10 -10 -10 -10 -10 -9 -8 -8 -8 -8
-10 -9 -9 -9 -9 -8 -9 -9 -9 -9 -8 -8 -8 -7 -8 -9 -8 -9 -9 -9 -9 -10 -10 -9 -9 -9 -9 -10 -10 -10 -9 -10 -10 -10 -10 -11 -11 -11 -10 -9 -9 -9 -8 -9
-9 -9 -10 -9 -9 -10 -10 -10 -10 -9 -9 -8 -8 -8 -9 -9 -9 -9 -9 -9 -9 -10 -9 -10 -10 -10 -10 -10 -10 -10 -10 -10 -10 -11 -11 -11 -11 -11 -11 -10 -10 -10 -10 -9
-9 -9 -10 -11 -11 -11 -11 -10 -11 -10 -10 -10 -9 -9 -9 -10 -10 -10 -9 -9 -10 -9 -10 -10 -10 -10 -10 -11 -11 -11 -11 -11 -11 -11 -11 -11 -11 -11 -11 -11 -11 -10 -10 -10
-9 -10 -10 -10 -10 -10 -10 -9 -9 -10 -10 -11 -11 -10 -11 -10 -10 -10 -10 -10 -9 -10 -10 -10 -11 -11 -11 -11 -11 -11 -11 -11 -11 -12 -12 -11 -12 -11 -12 -11 -11 -11 -10 -10
-10 -10 -10 -10 -11 -11 -11 -11 -10 -11 -11 -11 -10 -8 -7 -10 -11 -10 -10 -10 -10 -10 -10 -11 -11 -11 -11 -11 -11 -11 -11 -12 -12 -12 -12 -12 -12 -12 -12 -11 -11 -11 -11 -11
-11 -10 -10 -10 -11 -11 -10 -10 -11 -11 -11 -10 -10 -10 -10 -10 -10 -10 -10 -10 -10 -10 -11 -11 -11 -12 -12 -12 -12 -11 -11 -12 -12 -12 -12 -12 -12 -12 -12 -12 -12 -12 -12 -12
-10 -10 -10 -12 -11 -11 -11 -11 -12 -12 -12 -11 -11 -11 -11 -11 -11 -10 -10 -11 -11 -11 -11 -11 -12 -12 -11 -11 -12 -12 -12 -12 -12 -12 -13 -13 -13 -12 -12 -12 -12 -12 -12 -12
-11 -10 -11 -12 -12 -12 -12 -11 -12 -13 -12 -11 -11 -11 -11 -11 -11 -9 -11 -11 -11 -12 -11 -11 -12 -11 -11 -11 -12 -12 -12 -12 -12 -13 -13 -12 -13 -12 -13 -13 -13 -13 -13 -13
-13 -12 -13 -12 -12 -12 -12 -12 -12 -12 -13 -13 -12 -11 -11 -11 -11 -11 -11 -12 -12 -11 -11 -12 -11 -11 -12 -12 -12 -12 -12 -12 -12 -12 -13 -13 -13 -13 -13 -13 -13 -13 -13 -14
-13 -12 -12 -12 -12 -12 -12 -13 -13 -12 -13 -12 -12 -12 -12 -12 -11 -11 -11 -11 -11 -11 -12 -12 -12 -12 -12 -12 -12 -12 -13 -13 -13 -13 -13 -13 -13 -13 -13 -13 -13 -13 -14 -14
-12 -12 -10 -11 -11 -12 -12 -12 -12 -12 -12 -12 -12 -12 -11 -11 -11 -12 -11 -11 -11 -12 -12 -12 -12 -12 -12 -12 -12 -13 -13 -12 -12 -13 -13 -13 -13 -13 -13 -13 -14 -14 -14 -14
-13 -12 -12 -12 -13 -12 -12 -12 -12 -12 -12 -12 -12 -11 -11 -11 -11 -11 -11 -11 -12 -12 -12 -12 -12 -12 -12 -12 -13 -13 -13 -12 -13 -13 -13 -13 -13 -13 -14 -14 -14 -14 -13 -14
-11 -12 -12 -12 -12 -12 -12 -12 -12 -12 -12 -12 -12 -11 -11 -11 -11 -12 -12 -12 -12 -12 -12 -12 -12 -12 -12 -12 -13 -13 -13 -12 -13 -13 -13 -13 -14 -14 -14 -14 -13 -14 -14 -14
-12 -13 -13 -14 -13 -13 -11 -12 -12 -12 -12 -12 -12 -12 -12 -12 -12 -12 -12 -12 -12 -11 -11 -12 -12 -12 -12 -13 -13 -13 -13 -13 -13 -13 -13 -14 -14 -14 -14 -14 -14 -14 -14 -14
Height
5926 5928 5928 5927 5929 5928 5924 5933 5934 5935 5931 5931 5930 5930 5928 5931 5929 5929 5929 5929 5930 5930 5930 5929 5929 5930 5930 5931 5932 5933 5934 5934 5933 5934 5934 5934 5934 5934 5934 5933 5933 5932 5932 5931
5927 5920 5926 5928 5929 5930 5931 5935 5933 5934 5931 5931 5931 5930 5931 5931 5930 5930 5930 5930 5929 5929 5929 5929 5929 5928 5929 5931 5931 5931 5932 5933 5933 5933 5933 5934 5935 5934 5932 5931 5930 5930 5929 5929
5930 5931 5930 5930 5931 5932 5934 5932 5933 5931 5932 5931 5932 5930 5930 5930 5931 5931 5930 5928 5928 5928 5928 5928 5927 5928 5928 5927 5929 5929 5931 5931 5931 5932 5933 5933 5933 5931 5930 5929 5928 5928 5926 5925
5929 5931 5932 5932 5932 5932 5925 5922 5930 5930 5932 5931 5923 5925 5929 5928 5927 5927 5927 5928 5927 5927 5927 5927 5927 5927 5926 5926 5927 5928 5928 5927 5926 5927 5928 5928 5928 5927 5926 5925 5923 5923 5921 5920
5931 5932 5929 5933 5931 5932 5924 5928 5931 5931 5931 5933 5932 5931 5914 5922 5923 5924 5925 5926 5927 5927 5925 5925 5925 5926 5926 5924 5922 5922 5923 5923 5924 5925 5924 5924 5923 5922 5920 5919 5920 5919 5918 5915
5927 5928 5928 5930 5929 5928 5930 5930 5930 5932 5933 5937 5925 5929 5925 5906 5920 5920 5922 5923 5924 5925 5924 5924 5923 5922 5922 5922 5920 5920 5920 5920 5919 5919 5918 5918 5916 5915 5913 5912 5910 5912 5911 5908
5924 5925 5927 5926 5928 5927 5928 5932 5938 5933 5930 5933 5913 5926 5925 5916 5917 5917 5920 5920 5922 5923 5922 5922 5921 5919 5918 5918 5916 5917 5917 5915 5914 5914 5912 5912 5910 5909 5908 5906 5903 5902 5897 5895
5923 5924 5922 5924 5924 5926 5925 5928 5933 5928 5932 5932 5913 5916 5921 5920 5917 5916 5917 5917 5918 5918 5919 5919 5917 5917 5914 5912 5912 5912 5911 5909 5908 5907 5906 5905 5902 5901 5900 5899 5896 5892 5865 5879
5923 5925 5921 5919 5918 5920 5922 5925 5929 5927 5929 5927 5930 5927 5920 5915 5912 5912 5911 5913 5914 5914 5914 5913 5913 5912 5907 5910 5909 5907 5907 5905 5903 5901 5900 5898 5895 5892 5889 5889 5885 5883 5878 5874
5913 5915 5916 5916 5911 5914 5914 5918 5921 5922 5921 5921 5921 5923 5915 5909 5905 5902 5907 5908 5908 5908 5908 5907 5906 5903 5904 5904 5904 5901 5900 5899 5896 5894 5892 5885 5878 5875 5878 5878 5880 5877 5873 5871
5905 5906 5910 5910 5910 5910 5913 5912 5913 5914 5917 5918 5919 5921 5908 5908 5902 5898 5902 5903 5903 5902 5902 5901 5900 5898 5897 5896 5897 5895 5892 5891 5888 5886 5881 5868 5874 5867 5872 5870 5868 5866 5862 5859
5899 5900 5903 5906 5909 5907 5908 5909 5909 5910 5914 5914 5913 5915 5905 5903 5901 5898 5899 5898 5897 5896 5896 5895 5895 5893 5891 5889 5887 5885 5884 5883 5880 5878 5874 5872 5868 5868 5868 5865 5862 5858 5853 5852
5892 5894 5897 5900 5904 5904 5902 5900 5902 5903 5904 5905 5907 5910 5897 5895 5893 5892 5891 5890 5890 5889 5888 5888 5888 5886 5885 5884 5882 5880 5877 5874 5872 5870 5867 5863 5862 5862 5861 5857 5850 5847 5845 5842
5885 5887 5889 5893 5896 5893 5892 5891 5892 5895 5896 5898 5900 5902 5890 5885 5884 5883 5884 5883 5882 5881 5880 5879 5878 5877 5876 5875 5874 5872 5869 5867 5864 5861 5859 5857 5855 5851 5847 5842 5841 5839 5836 5835
5875 5876 5877 5879 5881 5881 5879 5882 5881 5882 5884 5886 5889 5890 5872 5868 5871 5876 5876 5876 5874 5873 5871 5870 5869 5868 5867 5866 5864 5862 5860 5859 5856 5853 5850 5848 5845 5842 5838 5836 5835 5832 5830 5828
5869 5867 5865 5867 5868 5866 5864 5870 5872 5872 5872 5874 5875 5877 5864 5865 5866 5866 5867 5867 5866 5864 5862 5861 5860 5859 5858 5856 5855 5852 5849 5848 5845 5843 5841 5839 5836 5834 5831 5827 5825 5823 5823 5822
5859 5859 5858 5858 5861 5861 5861 5859 5857 5859 5859 5862 5862 5851 5848 5853 5858 5859 5859 5859 5857 5855 5854 5852 5851 5850 5848 5846 5844 5841 5838 5835 5833 5832 5830 5828 5827 5825 5824 5820 5816 5815 5814 5813
5849 5849 5849 5850 5852 5853 5855 5847 5850 5852 5852 5849 5850 5848 5850 5850 5852 5851 5851 5850 5849 5848 5846 5845 5843 5841 5839 5837 5835 5831 5826 5823 5822 5819 5818 5816 5815 5815 5815 5813 5810 5808 5807 5806
5840 5841 5841 5843 5847 5849 5844 5842 5843 5844 5846 5835 5840 5843 5845 5845 5845 5844 5842 5842 5843 5841 5839 5837 5835 5833 5831 5829 5826 5822 5819 5815 5813 5809 5806 5806 5807 5806 5806 5805 5804 5801 5799 5796
5832 5832 5834 5839 5840 5841 5838 5833 5835 5836 5837 5833 5835 5836 5837 5839 5839 5830 5832 5835 5835 5835 5832 5830 5828 5826 5824 5822 5819 5816 5813 5810 5807 5805 5802 5801 5800 5800 5799 5797 5795 5792 5788 5786
5830 5828 5830 5834 5834 5839 5827 5829 5830 5832 5836 5829 5831 5832 5832 5833 5834 5831 5826 5827 5827 5827 5826 5824 5822 5820 5817 5815 5812 5809 5807 5803 5801 5798 5796 5795 5796 5795 5793 5791 5788 5785 5782 5779
5827 5827 5831 5831 5831 5831 5824 5825 5826 5825 5826 5826 5826 5826 5826 5827 5827 5826 5825 5823 5822 5821 5819 5818 5816 5814 5811 5809 5806 5803 5799 5796 5794 5792 5791 5792 5791 5789 5788 5786 5784 5781 5778 5775
5820 5821 5818 5822 5819 5820 5820 5820 5821 5821 5822 5821 5821 5822 5821 5821 5821 5820 5819 5818 5817 5815 5814 5812 5810 5807 5805 5803 5800 5797 5794 5790 5788 5788 5788 5787 5786 5785 5783 5782 5779 5776 5774 5772
5812 5814 5815 5817 5815 5816 5817 5817 5817 5817 5818 5817 5817 5817 5816 5815 5815 5814 5813 5812 5811 5810 5809 5807 5805 5802 5800 5797 5794 5792 5789 5785 5784 5783 5783 5782 5781 5780 5779 5777 5775 5772 5769 5767
5808 5801 5809 5811 5811 5812 5812 5812 5813 5814 5814 5812 5812 5812 5812 5811 5810 5809 5808 5808 5807 5806 5804 5802 5799 5797 5794 5791 5789 5787 5784 5783 5782 5781 5779 5778 5777 5776 5774 5772 5769 5767 5765 5762
5803 5802 5806 5806 5807 5808 5807 5808 5809 5809 5809 5808 5807 5807 5806 5806 5805 5804 5804 5803 5802 5801 5799 5797 5794 5792 5790 5787 5785 5782 5780 5780 5778 5777 5776 5774 5773 5771 5769 5767 5765 5763 5760 5758
Wind_Speed
12 5 4 16 18 10 11 11 10 3 11 4 3 7 2 11 8 6 4 6 7 7 8 8 7 8 12 11 11 13 15 16 16 15 15 15 15 14 15 15 15 17 17 17
3 12 6 12 13 10 10 10 4 11 5 7 7 4 7 8 7 9 7 6 7 8 11 9 9 9 9 12 13 14 16 17 17 16 15 14 14 17 17 18 18 18 18 19
3 3 1 3 9 3 7 9 7 14 10 11 9 5 4 5 8 8 7 10 9 7 8 10 11 12 10 12 13 14 16 18 19 20 18 18 18 21 22 21 22 21 22 23
8 5 3 2 1 5 14 11 16 2 5 15 4 8 9 9 9 10 7 7 10 14 11 9 11 14 14 13 13 16 18 20 22 23 22 23 25 25 26 26 26 24 26 25
12 9 9 6 12 9 18 4 3 4 7 10 14 7 20 13 18 15 12 12 11 12 16 17 15 12 14 14 14 15 19 22 24 26 27 27 29 31 31 30 30 30 28 31
15 16 13 13 10 14 11 11 9 8 9 11 28 11 23 7 14 17 19 17 16 16 17 16 18 20 20 19 21 19 17 20 23 25 27 28 32 32 34 35 35 33 35 37
14 16 17 19 19 16 14 8 9 17 18 16 8 13 23 28 17 17 21 21 20 18 19 19 17 18 20 21 21 22 21 25 23 25 27 26 31 31 34 36 40 40 43 44
21 20 18 20 21 20 22 12 18 16 17 18 30 19 11 27 30 29 24 26 27 26 23 24 25 24 24 27 26 25 24 28 28 31 32 31 33 35 39 44 47 49 59 55
19 17 26 28 26 21 18 17 17 23 22 25 19 16 20 29 32 27 29 28 26 25 26 28 27 27 30 29 28 28 27 30 34 36 39 39 43 42 41 43 45 49 57 39
23 26 22 24 29 26 26 20 17 15 20 23 19 21 28 14 16 27 19 24 24 23 23 24 26 31 32 32 28 30 32 34 36 41 42 53 49 34 36 43 43 53 47 51
26 23 22 19 22 18 17 15 18 19 18 20 19 13 18 19 21 30 30 26 18 18 19 22 27 29 32 33 34 35 36 38 39 40 48 47 44 53 35 47 46 44 44 44
18 20 19 17 17 18 21 22 21 19 19 19 19 19 34 33 34 38 32 25 22 22 23 22 21 23 28 29 31 33 34 38 40 38 38 37 31 27 25 27 31 30 28 28
21 20 18 18 18 19 23 21 23 22 23 25 26 23 35 35 37 37 34 27 25 26 28 28 29 29 29 29 31 34 37 38 39 38 35 34 32 30 30 25 23 26 27 27
28 28 25 22 21 20 20 19 17 18 22 21 22 21 35 40 38 36 33 31 30 31 33 34 32 30 29 32 35 36 38 39 39 37 36 35 36 35 35 32 28 30 30 26
36 37 35 31 28 29 31 28 31 31 27 27 23 22 25 36 33 33 37 38 36 35 35 32 29 30 31 33 35 36 37 38 40 40 39 38 39 39 36 36 33 32 31 29
33 35 38 36 37 37 37 41 47 32 36 31 29 27 46 47 43 42 42 39 37 33 30 28 27 30 33 35 38 40 41 43 43 43 44 43 42 41 40 39 34 29 26 27
33 34 34 31 24 23 24 28 27 29 39 36 20 30 28 31 33 39 36 36 32 30 31 31 32 34 37 39 40 42 46 47 45 46 47 48 45 42 39 30 25 26 25 24
31 31 32 30 30 26 24 30 22 17 15 18 23 47 44 43 39 36 32 28 27 27 26 25 27 28 30 33 37 43 46 44 46 47 50 43 41 37 31 28 23 22 24 24
28 28 28 23 20 18 23 27 27 20 21 26 31 29 32 35 33 30 26 25 26 24 24 26 30 30 27 29 29 31 28 24 23 25 26 29 22 25 26 23 24 25 26 28
21 22 22 17 18 20 23 24 22 30 22 31 30 29 28 23 24 26 31 16 23 24 24 25 26 23 23 24 26 26 25 23 22 22 21 20 21 21 21 23 27 29 30 30
15 17 15 14 13 15 30 29 27 18 19 27 24 17 18 20 18 22 25 21 22 23 21 23 24 24 24 23 24 24 24 25 25 25 22 19 18 19 20 17 17 17 18 17
14 13 10 18 19 22 28 27 23 20 20 20 21 15 17 18 21 21 22 22 22 21 21 21 22 22 22 24 25 25 23 25 25 22 15 15 18 16 16 17 17 16 16 16
18 17 19 18 19 27 22 21 12 13 13 14 16 15 19 21 20 21 20 20 19 18 17 18 20 22 23 24 24 22 25 23 20 16 15 17 15 15 17 18 18 17 18 19
21 17 17 25 21 21 18 14 12 12 12 16 15 18 19 16 13 16 20 19 17 15 17 19 21 23 24 24 22 21 20 15 12 13 12 12 14 15 16 18 19 19 18 18
17 21 21 20 22 17 18 17 16 17 17 20 20 20 18 17 17 18 17 14 14 16 18 19 21 22 23 24 21 20 16 10 10 11 12 14 15 17 18 18 17 17 18 19
17 19 18 22 20 17 14 14 15 17 18 18 20 18 17 18 17 16 13 13 14 16 18 19 21 22 23 23 20 20 18 15 16 14 14 15 17 18 18 16 16 17 19 19
Wind_Direction
130 155 173 186 217 163 77 242 263 276 242 249 209 201 215 295 331 331 306 270 256 243 250 249 260 247 228 224 233 225 225 223 219 222 226 231 238 243 246 248 251 257 254 254
172 55 96 180 203 214 229 213 197 245 266 284 283 298 313 319 314 320 317 300 279 257 251 254 260 258 250 243 245 252 241 236 236 232 238 244 246 250 251 253 252 250 256 259
171 164 61 160 186 155 229 248 257 248 265 280 280 275 287 282 282 284 307 321 325 322 289 266 253 255 264 261 261 259 257 254 250 248 255 259 263 265 264 263 264 263 258 258
257 225 214 178 123 160 250 173 255 271 243 273 201 287 235 244 246 268 278 286 296 298 295 287 279 269 253 259 274 274 270 265 263 263 260 262 264 265 266 267 265 264 263 262
230 261 245 209 223 197 285 244 223 249 266 292 293 270 249 238 263 284 309 296 282 278 287 286 282 280 278 274 264 265 271 273 274 275 276 275 274 273 268 265 263 262 263 263
249 251 254 240 236 238 230 250 270 289 299 271 257 217 273 226 250 261 286 292 297 298 287 285 275 272 272 280 272 270 282 300 301 286 278 273 271 268 269 267 264 262 263 263
252 248 269 266 251 262 265 269 280 257 233 232 220 270 250 275 276 288 283 288 290 293 290 281 276 273 277 281 280 279 289 283 287 290 289 283 286 289 287 284 277 271 262 256
267 254 235 264 250 245 264 226 257 283 284 283 308 297 235 272 275 271 267 277 282 282 278 277 278 276 275 272 278 281 283 286 283 288 289 279 286 279 285 281 285 274 261 258
237 246 270 267 259 261 257 269 269 253 259 271 277 280 291 288 284 266 268 272 274 274 272 275 277 279 276 283 285 286 288 289 294 295 293 281 276 277 276 273 285 288 277 270
239 239 249 251 264 260 260 248 256 260 252 252 254 272 271 259 267 277 261 270 267 264 260 263 266 269 274 277 279 279 281 283 288 288 286 281 260 278 281 273 275 287 284 286
249 251 253 254 260 263 262 272 267 249 243 254 264 267 278 283 271 271 281 284 272 269 268 268 270 275 279 278 281 282 280 281 286 287 291 319 316 306 317 308 309 307 303 310
250 243 251 253 257 263 242 239 241 243 259 269 270 264 267 273 269 267 270 274 271 269 275 278 275 276 278 282 284 288 289 289 286 288 297 302 311 314 304 296 301 308 309 303
248 249 261 273 267 278 268 260 260 262 261 255 257 260 269 271 275 279 278 281 278 277 275 273 276 279 279 277 279 279 280 282 285 290 295 301 301 299 299 296 305 303 299 302
254 254 254 248 238 237 253 260 246 250 256 254 254 269 274 268 267 269 270 277 277 277 280 281 279 273 269 271 271 274 278 281 285 287 290 294 295 299 304 310 306 302 302 299
256 255 256 252 255 255 254 260 258 255 255 258 251 243 277 267 266 266 273 279 280 281 279 277 272 269 271 276 282 285 284 282 282 280 283 287 293 298 300 303 297 291 290 287
272 270 269 267 268 268 271 258 257 260 257 255 260 258 254 257 269 272 276 278 283 282 279 280 277 272 275 277 278 281 282 283 283 283 283 285 291 295 293 295 286 280 278 279
271 271 273 273 270 270 268 276 275 256 253 237 233 261 262 246 261 269 272 278 278 280 279 282 280 281 281 279 279 279 277 276 277 280 285 285 283 289 294 281 279 282 285 285
275 270 269 270 266 265 263 255 250 239 253 247 235 250 250 258 266 275 278 275 278 275 282 282 286 288 288 287 288 289 283 280 276 283 279 273 285 285 282 281 281 282 286 283
272 268 262 262 263 257 273 278 256 251 246 250 246 252 253 263 276 277 274 277 276 279 279 281 285 288 288 289 291 299 302 296 293 297 283 276 286 284 286 287 288 287 281 280
275 268 254 246 247 248 258 249 277 241 247 254 263 267 265 269 269 272 279 274 283 278 280 286 291 290 296 293 291 294 294 293 293 289 286 283 287 284 287 290 295 295 293 291
291 270 258 261 255 249 252 267 274 266 235 257 266 265 265 262 268 267 291 298 282 277 279 285 291 293 296 298 300 301 299 293 294 292 286 281 277 287 296 304 316 328 334 327
245 257 240 237 238 242 254 268 256 238 239 246 258 266 267 269 265 272 291 291 284 283 283 285 290 293 298 301 303 306 302 300 292 296 273 271 290 297 304 309 312 319 326 325
252 213 255 222 232 241 249 250 244 242 246 255 261 271 278 278 275 273 277 286 286 285 284 286 291 294 298 305 308 306 306 303 293 275 275 287 288 297 305 308 311 316 318 316
258 255 233 226 252 239 252 250 246 257 265 265 264 276 281 287 278 273 278 281 283 286 291 293 296 299 303 308 307 308 311 311 307 292 294 299 303 307 308 306 308 311 313 314
264 225 239 241 259 248 247 256 259 264 269 266 266 277 271 281 280 277 276 277 283 293 297 299 301 305 309 310 307 309 309 305 306 297 296 301 304 305 305 310 315 318 320 320
250 259 247 232 248 251 246 257 262 263 270 271 270 268 272 278 276 271 263 275 291 302 308 308 308 310 310 308 305 305 296 289 296 291 296 302 304 304 305 305 310 313 314 313